Location: Casilda
(33.0440°S, 61.1680°W)
Time: 15:40:16
(UTC-03:00)

ISS - Pass Details

Date: 11 June 2021
Orbit: 417 x 422 km, 51.6° (Epoch: 16 June)

Event Time Altitude Azimuth Distance (km) Brightness Sun altitude
Exits shadow 06:36:15 56° 259° (WSW) 515 -3.7 -18.0°
Maximum altitude 06:36:47 69° 314° (NW) 459 -3.8 -17.9°
Drops below altitude 10° 06:40:09 10° 37° (NE) 1,506 -0.1 -17.2°
Sets 06:42:15 0° 40° (NE) 2,362 1.0 -16.8°
